Chihuahua, Mexico

2:47 AM MST on January 16, 2018 (GMT -0700)
Gen Div P A Roberto Fierro

Weather History for MMCU - February, 2014

Change the Weather History Date:

Saturday, February 22, 2014

  Actual Average Record
Temperature  
Mean Temperature 64 °F -  
Max Temperature 79 °F 70 °F 87 °F (2017)
Min Temperature 48 °F 38 °F 28 °F (2002)
Degree Days  
Heating Degree Days 2    
Growing Degree Days 14 (Base 50)    
Moisture  
Dew Point 21 °F    
Average Humidity 19    
Maximum Humidity 36    
Minimum Humidity 11    
Precipitation  
Precipitation 0.00 in - - ()
Sea Level Pressure  
Sea Level Pressure 29.90 in    
Wind  
Wind Speed 4 mph ()    
Max Wind Speed 13 mph    
Max Gust Speed -    
Visibility 9.1 miles    
Events      
Averages and records for this station are not official NWS values.
T = Trace of Precipitation, MM = Missing Value Source: Averaged Metar Reports

Daily Weather History Graph

Daily Weather History Graph

Search for Another Location

Airport or City:

Trip Planner

Search our weather history database for the weather conditions in past years. The results will help you decide how hot, cold, wet, or windy it might be!

Date:

Astronomy

Feb. 22, 2014 Rise Set
Actual Time 6:35 AM MST 5:59 PM MST
Civil Twilight 6:11 AM MST 6:23 PM MST
Nautical Twilight 5:44 AM MST 6:50 PM MST
Astronomical Twilight 5:17 AM MST 7:18 PM MST
Moon 12:22 AM MST (2/22) 11:24 AM MST (2/22)
Length of Visible Light 12h 11m
Length of Day
11h 23m
Waning Gibbous, 49% of the Moon is Illuminated
Feb 22
Waning Gibbous
Mar 1
New
Mar 8
First Quarter
Mar 16
Full
Mar 23
Last Quarter

Hourly Weather History & Observations

Time (MST) Temp. Windchill Dew Point Humidity Pressure Visibility Wind Dir Wind Speed Gust Speed Precip Events Conditions
4:40 AM 53 °F - 30 °F 29% 29.83 in 6 mi West 2.2 mph - -   Partly Cloudy
4:40 AM 46.4 °F 43.5 °F 15.8 °F 29% 29.86 in 10.0 mi SSW 5.8 mph - N/A   Overcast
4:45 AM 51 °F - 26 °F 26% 29.75 in 1 mi SSW 2.2 mph - -   Mostly Cloudy
5:40 AM 39.2 °F 35.0 °F 14.0 °F 36% 30.04 in 10.0 mi SSE 5.8 mph - N/A   Mostly Cloudy
6:40 AM 39.2 °F 33.0 °F 14.0 °F 36% 30.05 in 10.0 mi South 9.2 mph - N/A   Mostly Cloudy
7:40 AM 48.2 °F - 19.4 °F 32% 29.95 in 10.0 mi Calm Calm - N/A   Mostly Cloudy
8:40 AM 62.6 °F - 21.2 °F 20% 30.09 in 10.0 mi SSW 4.6 mph - N/A   Mostly Cloudy
9:40 AM 66.2 °F - 24.8 °F 21% - 10.0 mi SW 4.6 mph - N/A   Mostly Cloudy
10:40 AM 71 °F - 37 °F 18% 29.81 in 6 mi WNW 4.5 mph - -   Partly Cloudy
10:40 AM 71.6 °F - 24.8 °F 17% 29.89 in 10.0 mi SSW 5.8 mph - N/A   Mostly Cloudy
11:40 AM 71.6 °F - 23.0 °F 16% 30.04 in 10.0 mi West 4.6 mph - N/A   Mostly Cloudy
12:40 PM 75.2 °F - 19.4 °F 12% 30.00 in 10.0 mi Calm Calm - N/A   Mostly Cloudy
1:40 PM 73.4 °F - 17.6 °F 12% 29.83 in 10.0 mi Calm Calm - N/A   Mostly Cloudy
2:40 PM 77.0 °F - 19.4 °F 12% 29.94 in 10.0 mi Calm Calm - N/A   Mostly Cloudy
3:42 PM 75.2 °F - 19.4 °F 12% 29.91 in 10.0 mi WNW 10.4 mph - N/A   Mostly Cloudy
4:44 PM 75.2 °F - 17.6 °F 11% 29.72 in 10.0 mi West 12.7 mph - N/A   Mostly Cloudy
4:45 PM 77 °F - 34 °F 12% 29.57 in 6 mi NNW 11.2 mph - -   Partly Cloudy
5:40 PM 75.2 °F - 17.6 °F 11% 29.93 in 10.0 mi WNW 10.4 mph - N/A   Mostly Cloudy
6:40 PM 71.6 °F - 17.6 °F 13% 29.95 in 10.0 mi WNW 6.9 mph - N/A   Mostly Cloudy
7:44 PM 64.4 °F - 17.6 °F 16% 29.82 in 10.0 mi WSW 4.6 mph - N/A   Mostly Cloudy
8:40 PM 60.8 °F - 15.8 °F 17% 30.02 in 10.0 mi South 8.1 mph - N/A   Mostly Cloudy
9:45 PM 60.8 °F - 17.6 °F 19% 30.04 in 10.0 mi SSW 5.8 mph - N/A   Scattered Clouds
10:44 PM 55.4 °F - 14.0 °F 20% 29.84 in 10.0 mi East 5.8 mph - N/A   Partly Cloudy